QPF
0.00 0.00 0.00 0.00 0.00 0.00 0.00 0.00 0.00 0.00 0.00 0.00 0.00 0.00 0.00 0.00 0.00 0.00 0.00 0.00 0.00 0.00 0.00 0.00 0.00 0.00 0.00 0.00 0.00 0.00 0.00 0.00 0.00 0.00 0.00 0.00 0.00 0.00 0.00 0.00 0.00 0.00 0.00 0.00 0.00 0.00 0.00 0.00 0.00
0.00 0.00 0.00 0.00 0.00 0.00 0.00 0.00 0.00 0.00 0.00 0.00 0.00 0.00 0.00 0.00 0.00 0.00 0.00 0.00 0.00 0.00 0.00 0.00 0.00 0.00 0.00 0.00 0.00 0.00 0.00 0.00 0.00 0.00 0.00 0.00 0.00 0.00 0.00 0.00 0.00 0.00 0.00 0.00 0.00 0.00 0.00 0.00 0.00
0.00 0.00 0.00 0.00 0.00 0.00 0.00 0.00 0.00 0.00 0.00 0.00 0.00 0.00 0.00 0.00 0.00 0.00 0.00 0.00 0.00 0.00 0.00 0.00 0.00 0.00 0.00 0.00 0.00 0.00 0.00 0.00 0.00 0.00 0.00 0.00 0.00 0.00 0.00 0.00 0.00 0.00 0.00 0.00 0.00 0.00 0.00 0.00 0.00
0.00 0.00 0.00 0.00 0.00 0.00 0.00 0.00 0.00 0.00 0.00 0.00 0.00 0.00 0.00 0.00 0.00 0.00 0.00 0.00 0.00 0.00 0.00 0.00 0.00 0.00 0.00 0.00 0.00 0.00 0.00 0.00 0.00 0.00 0.00 0.00 0.00 0.00 0.00 0.00 0.00 0.00 0.00 0.00 0.00 0.00 0.00 0.00 0.00
0.00 0.00 0.00 0.00 0.00 0.00 0.00 0.00 0.00 0.00 0.00 0.00 0.00 0.00 0.00 0.00 0.00 0.00 0.00 0.00 0.00 0.00 0.00 0.00 0.00 0.00 0.00 0.00 0.00 0.00 0.00 0.00 0.00 0.00 0.00 0.00 0.00 0.00 0.00 0.00 0.00 0.00 0.00 0.00 0.00 0.00 0.00 0.00 0.00
0.00 0.00 0.00 0.00 0.00 0.00 0.00 0.00 0.00 0.00 0.00 0.00 0.00 0.00 0.00 0.00 0.00 0.00 0.00 0.00 0.00 0.00 0.00 0.00 0.00 0.00 0.00 0.00 0.00 0.00 0.00 0.00 0.00 0.00 0.00 0.00 0.00 0.00 0.00 0.00 0.00 0.00 0.00 0.00 0.00 0.00 0.00 0.00 0.00
0.00 0.00 0.00 0.00 0.00 0.00 0.00 0.00 0.00 0.00 0.00 0.00 0.00 0.00 0.00 0.00 0.00 0.00 0.00 0.00 0.00 0.00 0.00 0.00 0.00 0.00 0.00 0.00 0.00 0.00 0.00 0.00 0.00 0.00 0.00 0.00 0.00 0.00 0.00 0.00 0.00 0.00 0.00 0.00 0.00 0.00 0.00 0.00 0.00
0.00 0.00 0.00 0.00 0.00 0.00 0.00 0.00 0.00 0.00 0.00 0.00 0.00 0.00 0.00 0.00 0.00 0.00 0.00 0.00 0.00 0.00 0.00 0.00 0.00 0.00 0.00 0.00 0.00 0.00 0.00 0.00 0.00 0.00 0.00 0.00 0.00 0.00 0.00 0.00 0.00 0.00 0.00 0.00 0.00 0.00 0.00 0.00 0.00
0.00 0.00 0.00 0.00 0.00 0.00 0.00 0.00 0.00 0.00 0.00 0.00 0.00 0.00 0.00 0.00 0.00 0.00 0.00 0.00 0.00 0.00 0.00 0.00 0.00 0.00 0.00 0.00 0.00 0.00 0.00 0.00 0.00 0.00 0.00 0.00 0.00 0.00 0.00 0.00 0.00 0.00 0.00 0.00 0.00 0.00 0.00 0.00 0.00
0.00 0.00 0.00 0.00 0.00 0.00 0.00 0.00 0.00 0.00 0.00 0.00 0.00 0.00 0.00 0.00 0.00 0.00 0.00 0.00 0.00 0.00 0.00 0.00 0.00 0.00 0.00 0.00 0.00 0.00 0.00 0.00 0.00 0.00 0.00 0.00 0.00 0.00 0.00 0.00 0.00 0.00 0.00 0.00 0.00 0.00 0.00 0.00 0.00
0.00 0.00 0.00 0.00 0.00 0.00 0.00 0.00 0.00 0.00 0.00 0.00 0.00 0.00 0.00 0.00 0.00 0.00 0.00 0.00 0.00 0.00 0.00 0.00 0.00 0.00 0.00 0.00 0.00 0.00 0.00 0.00 0.00 0.00 0.00 0.00 0.00 0.00 0.00 0.00 0.00 0.00 0.00 0.00 0.00 0.00 0.00 0.00 0.00
0.00 0.00 0.00 0.00 0.00 0.00 0.00 0.00 0.00 0.00 0.00 0.00 0.00 0.00 0.00 0.00 0.00 0.00 0.00 0.00 0.00 0.00 0.00 0.00 0.00 0.00 0.00 0.00 0.00 0.00 0.00 0.00 0.00 0.00 0.00 0.00 0.00 0.00 0.00 0.00 0.00 0.00 0.00 0.00 0.00 0.00 0.00 0.00 0.00
0.00 0.00 0.00 0.00 0.00 0.00 0.00 0.00 0.00 0.00 0.00 0.00 0.00 0.00 0.00 0.00 0.00 0.00 0.00 0.00 0.00 0.00 0.00 0.00 0.00 0.00 0.00 0.00 0.00 0.00 0.00 0.00 0.00 0.00 0.00 0.00 0.00 0.00 0.00 0.00 0.00 0.00 0.00 0.00 0.00 0.00 0.00 0.00 0.00
0.00 0.00 0.00 0.00 0.00 0.00 0.00 0.00 0.00 0.00 0.00 0.00 0.00 0.00 0.00 0.00 0.00 0.00 0.00 0.00 0.00 0.00 0.00 0.00 0.00 0.00 0.00 0.00 0.00 0.00 0.00 0.00 0.00 0.00 0.00 0.00 0.00 0.00 0.00 0.00 0.00 0.00 0.00 0.00 0.00 0.00 0.00 0.00 0.00
0.00 0.00 0.00 0.00 0.00 0.00 0.00 0.00 0.00 0.00 0.00 0.00 0.00 0.00 0.00 0.00 0.00 0.00 0.00 0.00 0.00 0.00 0.00 0.00 0.00 0.00 0.00 0.00 0.00 0.00 0.00 0.00 0.00 0.00 0.00 0.00 0.00 0.00 0.00 0.00 0.00 0.00 0.00 0.00 0.00 0.00 0.00 0.00 0.00
0.00 0.00 0.00 0.00 0.00 0.00 0.00 0.00 0.00 0.00 0.00 0.00 0.00 0.00 0.00 0.00 0.00 0.00 0.00 0.00 0.00 0.00 0.00 0.00 0.00 0.00 0.00 0.00 0.00 0.00 0.00 0.00 0.00 0.00 0.00 0.00 0.00 0.00 0.00 0.00 0.00 0.00 0.00 0.00 0.00 0.00 0.00 0.00 0.00
0.00 0.00 0.00 0.00 0.00 0.00 0.00 0.00 0.00 0.00 0.00 0.00 0.00 0.00 0.00 0.00 0.00 0.00 0.00 0.00 0.00 0.00 0.00 0.00 0.00 0.00 0.00 0.00 0.00 0.00 0.00 0.00 0.00 0.00 0.00 0.00 0.00 0.00 0.00 0.00 0.00 0.00 0.00 0.00 0.00 0.00 0.00 0.00 0.00
0.00 0.00 0.00 0.00 0.00 0.00 0.00 0.00 0.00 0.00 0.00 0.00 0.00 0.00 0.00 0.00 0.00 0.00 0.00 0.00 0.00 0.00 0.00 0.00 0.00 0.00 0.00 0.00 0.00 0.00 0.00 0.00 0.00 0.00 0.00 0.00 0.00 0.00 0.00 0.00 0.00 0.00 0.00 0.00 0.00 0.00 0.00 0.00 0.00
0.00 0.00 0.00 0.00 0.00 0.00 0.00 0.00 0.00 0.00 0.00 0.00 0.00 0.00 0.00 0.00 0.00 0.00 0.00 0.00 0.00 0.00 0.00 0.00 0.00 0.00 0.00 0.00 0.00 0.00 0.00 0.00 0.00 0.00 0.00 0.00 0.00 0.00 0.00 0.00 0.00 0.00 0.00 0.00 0.00 0.00 0.00 0.00 0.00
0.00 0.00 0.00 0.00 0.00 0.00 0.00 0.00 0.00 0.00 0.00 0.00 0.00 0.00 0.00 0.00 0.00 0.00 0.00 0.00 0.00 0.00 0.00 0.00 0.00 0.00 0.00 0.00 0.00 0.00 0.00 0.00 0.00 0.00 0.00 0.00 0.00 0.00 0.00 0.00 0.00 0.00 0.00 0.00 0.00 0.00 0.00 0.00 0.00
0.00 0.00 0.00 0.00 0.00 0.00 0.00 0.00 0.00 0.00 0.00 0.00 0.00 0.00 0.00 0.00 0.00 0.00 0.00 0.00 0.00 0.00 0.00 0.00 0.00 0.00 0.00 0.00 0.00 0.00 0.00 0.00 0.00 0.00 0.00 0.00 0.00 0.00 0.00 0.00 0.00 0.00 0.00 0.00 0.00 0.00 0.00 0.00 0.00
0.00 0.00 0.00 0.00 0.00 0.00 0.00 0.00 0.00 0.00 0.00 0.00 0.00 0.00 0.00 0.00 0.00 0.00 0.00 0.00 0.00 0.00 0.00 0.00 0.00 0.00 0.00 0.00 0.00 0.00 0.00 0.00 0.00 0.00 0.00 0.00 0.00 0.00 0.00 0.00 0.00 0.00 0.00 0.00 0.00 0.00 0.00 0.00 0.00
0.00 0.00 0.00 0.00 0.00 0.00 0.00 0.00 0.00 0.00 0.00 0.00 0.00 0.00 0.00 0.00 0.00 0.00 0.00 0.00 0.00 0.00 0.00 0.00 0.00 0.00 0.00 0.00 0.00 0.00 0.00 0.00 0.00 0.00 0.00 0.00 0.00 0.00 0.00 0.00 0.00 0.00 0.00 0.00 0.00 0.00 0.00 0.00 0.00
0.00 0.00 0.00 0.00 0.00 0.00 0.00 0.00 0.00 0.00 0.00 0.00 0.00 0.00 0.00 0.00 0.00 0.00 0.00 0.00 0.00 0.00 0.00 0.00 0.00 0.00 0.00 0.00 0.00 0.00 0.00 0.00 0.00 0.00 0.00 0.00 0.00 0.00 0.00 0.00 0.00 0.00 0.00 0.00 0.00 0.00 0.00 0.00 0.00
0.00 0.00 0.00 0.00 0.00 0.00 0.00 0.00 0.00 0.00 0.00 0.00 0.00 0.00 0.00 0.00 0.00 0.00 0.00 0.00 0.00 0.00 0.00 0.00 0.00 0.00 0.00 0.00 0.00 0.00 0.00 0.00 0.00 0.00 0.00 0.00 0.00 0.00 0.00 0.00 0.00 0.00 0.00 0.00 0.00 0.00 0.00 0.00 0.00
0.00 0.00 0.00 0.00 0.00 0.00 0.00 0.00 0.00 0.00 0.00 0.00 0.00 0.00 0.00 0.00 0.00 0.00 0.00 0.00 0.00 0.00 0.00 0.00 0.00 0.00 0.00 0.00 0.00 0.00 0.00 0.00 0.00 0.00 0.00 0.00 0.00 0.00 0.00 0.00 0.00 0.00 0.00 0.00 0.00 0.00 0.00 0.00 0.00
0.00 0.00 0.00 0.00 0.00 0.00 0.00 0.00 0.00 0.00 0.00 0.00 0.00 0.00 0.00 0.00 0.00 0.00 0.00 0.00 0.00 0.00 0.00 0.00 0.00 0.00 0.00 0.00 0.00 0.00 0.00 0.00 0.00 0.00 0.00 0.00 0.00 0.00 0.00 0.00 0.00 0.00 0.00 0.00 0.00 0.00 0.00 0.00 0.00
0.00 0.00 0.00 0.00 0.00 0.00 0.00 0.00 0.00 0.00 0.00 0.00 0.00 0.00 0.00 0.00 0.00 0.00 0.00 0.00 0.00 0.00 0.00 0.00 0.00 0.00 0.00 0.00 0.00 0.00 0.00 0.00 0.00 0.00 0.00 0.00 0.00 0.00 0.00 0.00 0.00 0.00 0.00 0.00 0.00 0.00 0.00 0.00 0.00
0.00 0.00 0.00 0.00 0.00 0.00 0.00 0.00 0.00 0.00 0.00 0.00 0.00 0.00 0.00 0.00 0.00 0.00 0.00 0.00 0.00 0.00 0.00 0.00 0.00 0.00 0.00 0.00 0.00 0.00 0.00 0.00 0.00 0.00 0.00 0.00 0.00 0.00 0.00 0.00 0.00 0.00 0.00 0.00 0.00 0.00 0.00 0.00 0.00
0.00 0.00 0.00 0.00 0.00 0.00 0.00 0.00 0.00 0.00 0.00 0.00 0.00 0.00 0.00 0.00 0.00 0.00 0.00 0.00 0.00 0.00 0.00 0.00 0.00 0.00 0.00 0.00 0.00 0.00 0.00 0.00 0.00 0.00 0.00 0.00 0.00 0.00 0.00 0.00 0.00 0.00 0.00 0.00 0.00 0.00 0.00 0.00 0.00
MSLP
1015.21 1016.00 1017.01 1018.10 1019.15 1020.03 1020.65 1020.99 1021.07 1020.94 1020.69 1020.40 1020.15 1019.95 1019.83 1019.74 1019.65 1019.54 1019.39 1019.21 1019.06 1018.96 1018.98 1019.15 1019.46 1019.90 1020.42 1020.96 1021.47 1021.91 1022.26 1022.52 1022.72 1022.91 1023.10 1023.34 1023.60 1023.90 1024.19 1024.44 1024.65 1024.78 1024.85 1024.87 1024.86 1024.85 1024.85 1024.87 1024.91
1015.67 1016.64 1017.77 1018.90 1019.89 1020.63 1021.05 1021.15 1020.96 1020.58 1020.12 1019.68 1019.33 1019.09 1018.97 1018.93 1018.91 1018.88 1018.81 1018.72 1018.64 1018.62 1018.71 1018.92 1019.29 1019.77 1020.33 1020.91 1021.46 1021.93 1022.31 1022.62 1022.87 1023.10 1023.34 1023.61 1023.90 1024.21 1024.51 1024.77 1024.97 1025.11 1025.18 1025.21 1025.20 1025.20 1025.21 1025.23 1025.28
1016.23 1017.34 1018.51 1019.61 1020.48 1021.04 1021.24 1021.09 1020.67 1020.10 1019.49 1018.95 1018.55 1018.32 1018.24 1018.26 1018.32 1018.37 1018.38 1018.37 1018.37 1018.42 1018.56 1018.82 1019.22 1019.73 1020.31 1020.90 1021.45 1021.94 1022.34 1022.67 1022.95 1023.21 1023.48 1023.77 1024.07 1024.39 1024.69 1024.94 1025.14 1025.27 1025.35 1025.39 1025.41 1025.43 1025.46 1025.52 1025.60
1016.89 1018.05 1019.21 1020.20 1020.91 1021.27 1021.24 1020.88 1020.28 1019.57 1018.89 1018.32 1017.94 1017.75 1017.73 1017.82 1017.95 1018.07 1018.15 1018.21 1018.27 1018.37 1018.56 1018.85 1019.27 1019.78 1020.35 1020.92 1021.45 1021.92 1022.31 1022.65 1022.94 1023.22 1023.50 1023.81 1024.12 1024.43 1024.72 1024.97 1025.16 1025.30 1025.39 1025.46 1025.51 1025.57 1025.66 1025.76 1025.88
1017.58 1018.74 1019.80 1020.65 1021.17 1021.31 1021.08 1020.56 1019.85 1019.09 1018.40 1017.87 1017.55 1017.44 1017.49 1017.65 1017.83 1018.01 1018.14 1018.24 1018.34 1018.47 1018.69 1019.00 1019.41 1019.90 1020.43 1020.95 1021.44 1021.86 1022.23 1022.55 1022.84 1023.13 1023.43 1023.75 1024.07 1024.39 1024.67 1024.92 1025.11 1025.26 1025.37 1025.47 1025.57 1025.68 1025.82 1025.98 1026.16
1018.24 1019.33 1020.26 1020.92 1021.24 1021.19 1020.81 1020.19 1019.45 1018.71 1018.08 1017.65 1017.42 1017.40 1017.52 1017.73 1017.95 1018.15 1018.30 1018.41 1018.53 1018.68 1018.91 1019.22 1019.61 1020.06 1020.53 1020.99 1021.41 1021.78 1022.11 1022.41 1022.70 1023.00 1023.32 1023.65 1024.00 1024.32 1024.62 1024.86 1025.06 1025.22 1025.36 1025.49 1025.63 1025.80 1026.00 1026.22 1026.45
1018.79 1019.76 1020.52 1020.99 1021.12 1020.92 1020.44 1019.79 1019.08 1018.43 1017.92 1017.61 1017.51 1017.57 1017.75 1017.98 1018.21 1018.39 1018.53 1018.65 1018.76 1018.92 1019.15 1019.45 1019.81 1020.21 1020.63 1021.02 1021.38 1021.69 1021.98 1022.26 1022.55 1022.87 1023.22 1023.59 1023.96 1024.31 1024.62 1024.88 1025.09 1025.26 1025.42 1025.58 1025.76 1025.97 1026.21 1026.48 1026.75
1019.18 1019.99 1020.57 1020.85 1020.82 1020.52 1020.00 1019.38 1018.76 1018.23 1017.87 1017.70 1017.71 1017.84 1018.06 1018.28 1018.48 1018.63 1018.74 1018.83 1018.94 1019.10 1019.32 1019.61 1019.96 1020.33 1020.69 1021.03 1021.33 1021.61 1021.87 1022.15 1022.46 1022.81 1023.20 1023.61 1024.02 1024.40 1024.73 1025.01 1025.23 1025.41 1025.58 1025.75 1025.95 1026.19 1026.46 1026.74 1027.03
1019.36 1020.01 1020.41 1020.53 1020.38 1020.02 1019.51 1018.96 1018.45 1018.08 1017.86 1017.82 1017.91 1018.09 1018.30 1018.50 1018.65 1018.74 1018.81 1018.87 1018.97 1019.13 1019.37 1019.66 1020.01 1020.36 1020.70 1021.01 1021.28 1021.54 1021.80 1022.09 1022.43 1022.82 1023.26 1023.72 1024.17 1024.59 1024.94 1025.23 1025.46 1025.65 1025.82 1025.99 1026.19 1026.43 1026.70 1026.98 1027.27
1019.36 1019.85 1020.09 1020.08 1019.85 1019.46 1018.99 1018.54 1018.16 1017.92 1017.84 1017.89 1018.03 1018.22 1018.40 1018.54 1018.62 1018.66 1018.68 1018.72 1018.82 1018.99 1019.25 1019.57 1019.93 1020.30 1020.64 1020.95 1021.22 1021.49 1021.76 1022.08 1022.46 1022.90 1023.38 1023.89 1024.38 1024.82 1025.20 1025.50 1025.73 1025.92 1026.08 1026.24 1026.43 1026.65 1026.90 1027.16 1027.43
1019.26 1019.60 1019.71 1019.59 1019.31 1018.92 1018.51 1018.14 1017.88 1017.75 1017.76 1017.86 1018.02 1018.18 1018.31 1018.38 1018.39 1018.36 1018.34 1018.37 1018.47 1018.67 1018.96 1019.33 1019.72 1020.12 1020.50 1020.83 1021.14 1021.43 1021.74 1022.10 1022.51 1022.99 1023.51 1024.05 1024.57 1025.03 1025.42 1025.73 1025.96 1026.14 1026.30 1026.45 1026.62 1026.81 1027.03 1027.26 1027.49
1019.13 1019.34 1019.34 1019.16 1018.85 1018.48 1018.12 1017.83 1017.65 1017.59 1017.64 1017.75 1017.89 1018.00 1018.05 1018.05 1017.99 1017.91 1017.86 1017.88 1018.00 1018.22 1018.56 1018.96 1019.41 1019.86 1020.28 1020.66 1021.02 1021.36 1021.71 1022.10 1022.55 1023.05 1023.59 1024.14 1024.66 1025.13 1025.52 1025.83 1026.07 1026.25 1026.40 1026.55 1026.71 1026.88 1027.07 1027.26 1027.44
1019.08 1019.19 1019.11 1018.87 1018.55 1018.20 1017.88 1017.64 1017.51 1017.48 1017.53 1017.61 1017.70 1017.74 1017.72 1017.64 1017.52 1017.41 1017.33 1017.35 1017.48 1017.73 1018.10 1018.54 1019.04 1019.53 1020.01 1020.45 1020.86 1021.25 1021.64 1022.06 1022.53 1023.03 1023.56 1024.09 1024.60 1025.05 1025.44 1025.75 1025.99 1026.19 1026.36 1026.52 1026.68 1026.84 1027.01 1027.16 1027.30
1019.18 1019.20 1019.05 1018.79 1018.46 1018.13 1017.84 1017.63 1017.51 1017.48 1017.49 1017.53 1017.54 1017.51 1017.42 1017.29 1017.12 1016.98 1016.89 1016.90 1017.04 1017.30 1017.67 1018.14 1018.66 1019.20 1019.72 1020.21 1020.67 1021.10 1021.53 1021.96 1022.42 1022.90 1023.39 1023.88 1024.35 1024.77 1025.14 1025.46 1025.72 1025.94 1026.14 1026.33 1026.51 1026.68 1026.84 1026.97 1027.07
1019.42 1019.37 1019.19 1018.91 1018.60 1018.29 1018.02 1017.82 1017.69 1017.62 1017.59 1017.55 1017.50 1017.41 1017.27 1017.09 1016.90 1016.74 1016.64 1016.64 1016.76 1017.00 1017.36 1017.82 1018.34 1018.90 1019.45 1019.98 1020.47 1020.94 1021.38 1021.81 1022.24 1022.67 1023.10 1023.52 1023.93 1024.31 1024.66 1024.98 1025.26 1025.53 1025.78 1026.01 1026.23 1026.43 1026.59 1026.70 1026.77
1019.75 1019.66 1019.46 1019.20 1018.90 1018.62 1018.38 1018.18 1018.03 1017.92 1017.83 1017.73 1017.62 1017.48 1017.30 1017.11 1016.91 1016.75 1016.63 1016.61 1016.70 1016.90 1017.21 1017.63 1018.12 1018.66 1019.22 1019.77 1020.29 1020.77 1021.22 1021.62 1022.01 1022.37 1022.72 1023.06 1023.39 1023.72 1024.04 1024.36 1024.67 1024.98 1025.29 1025.58 1025.84 1026.07 1026.25 1026.36 1026.39
1020.08 1019.98 1019.79 1019.56 1019.31 1019.07 1018.85 1018.66 1018.49 1018.33 1018.18 1018.04 1017.88 1017.71 1017.53 1017.34 1017.16 1016.99 1016.87 1016.82 1016.85 1016.98 1017.23 1017.58 1018.02 1018.52 1019.06 1019.61 1020.14 1020.62 1021.05 1021.43 1021.75 1022.04 1022.30 1022.55 1022.80 1023.07 1023.35 1023.67 1024.00 1024.35 1024.71 1025.05 1025.37 1025.63 1025.83 1025.94 1025.95
1020.31 1020.22 1020.08 1019.92 1019.74 1019.56 1019.37 1019.18 1018.99 1018.80 1018.60 1018.42 1018.24 1018.06 1017.90 1017.73 1017.57 1017.42 1017.29 1017.21 1017.18 1017.23 1017.39 1017.65 1018.01 1018.46 1018.97 1019.50 1020.01 1020.49 1020.90 1021.23 1021.50 1021.70 1021.87 1022.03 1022.20 1022.41 1022.65 1022.95 1023.30 1023.67 1024.07 1024.45 1024.80 1025.10 1025.31 1025.41 1025.41
1020.38 1020.34 1020.28 1020.20 1020.12 1020.01 1019.86 1019.68 1019.47 1019.24 1019.01 1018.79 1018.59 1018.43 1018.29 1018.17 1018.06 1017.94 1017.81 1017.70 1017.61 1017.59 1017.64 1017.80 1018.08 1018.46 1018.92 1019.42 1019.92 1020.37 1020.76 1021.05 1021.25 1021.39 1021.47 1021.54 1021.64 1021.77 1021.98 1022.25 1022.58 1022.97 1023.37 1023.77 1024.14 1024.44 1024.66 1024.77 1024.76
1020.26 1020.30 1020.36 1020.40 1020.42 1020.39 1020.29 1020.11 1019.88 1019.60 1019.32 1019.07 1018.87 1018.73 1018.63 1018.57 1018.51 1018.43 1018.33 1018.20 1018.07 1017.97 1017.94 1018.01 1018.20 1018.50 1018.90 1019.36 1019.83 1020.26 1020.61 1020.86 1021.01 1021.08 1021.10 1021.09 1021.12 1021.19 1021.34 1021.57 1021.87 1022.23 1022.62 1023.00 1023.36 1023.66 1023.87 1023.98 1023.98
1020.02 1020.17 1020.36 1020.54 1020.66 1020.70 1020.63 1020.45 1020.17 1019.84 1019.51 1019.22 1019.01 1018.89 1018.84 1018.84 1018.85 1018.83 1018.76 1018.64 1018.49 1018.34 1018.24 1018.22 1018.33 1018.56 1018.89 1019.30 1019.72 1020.12 1020.44 1020.65 1020.76 1020.78 1020.74 1020.67 1020.63 1020.65 1020.74 1020.91 1021.16 1021.46 1021.79 1022.14 1022.45 1022.73 1022.93 1023.05 1023.07
1019.74 1020.03 1020.36 1020.66 1020.89 1020.98 1020.91 1020.69 1020.35 1019.95 1019.55 1019.21 1018.99 1018.88 1018.89 1018.96 1019.05 1019.10 1019.09 1019.00 1018.84 1018.66 1018.51 1018.42 1018.46 1018.61 1018.88 1019.23 1019.60 1019.95 1020.23 1020.41 1020.48 1020.46 1020.38 1020.27 1020.18 1020.14 1020.16 1020.27 1020.44 1020.66 1020.91 1021.18 1021.43 1021.66 1021.85 1021.97 1022.01
1019.54 1019.97 1020.43 1020.84 1021.14 1021.25 1021.16 1020.88 1020.46 1019.96 1019.48 1019.09 1018.84 1018.75 1018.80 1018.94 1019.11 1019.25 1019.30 1019.26 1019.13 1018.94 1018.75 1018.62 1018.59 1018.67 1018.87 1019.15 1019.47 1019.76 1020.00 1020.14 1020.18 1020.12 1020.01 1019.87 1019.74 1019.64 1019.61 1019.63 1019.71 1019.83 1019.98 1020.15 1020.32 1020.49 1020.64 1020.76 1020.84
1019.49 1020.05 1020.62 1021.11 1021.44 1021.54 1021.40 1021.03 1020.50 1019.90 1019.33 1018.88 1018.61 1018.53 1018.62 1018.83 1019.09 1019.31 1019.44 1019.45 1019.36 1019.18 1018.98 1018.81 1018.73 1018.75 1018.88 1019.08 1019.33 1019.56 1019.75 1019.85 1019.85 1019.77 1019.64 1019.47 1019.31 1019.17 1019.07 1019.01 1018.99 1019.01 1019.04 1019.10 1019.17 1019.26 1019.37 1019.48 1019.59
1019.61 1020.27 1020.92 1021.45 1021.78 1021.83 1021.61 1021.15 1020.51 1019.81 1019.16 1018.66 1018.37 1018.30 1018.43 1018.70 1019.03 1019.33 1019.54 1019.61 1019.56 1019.41 1019.21 1019.02 1018.89 1018.86 1018.91 1019.04 1019.21 1019.38 1019.51 1019.56 1019.53 1019.43 1019.27 1019.09 1018.89 1018.71 1018.56 1018.42 1018.30 1018.21 1018.12 1018.06 1018.03 1018.03 1018.08 1018.17 1018.28
1019.85 1020.59 1021.27 1021.80 1022.08 1022.08 1021.77 1021.21 1020.48 1019.70 1019.00 1018.46 1018.16 1018.11 1018.28 1018.60 1018.99 1019.36 1019.63 1019.76 1019.76 1019.64 1019.45 1019.25 1019.09 1019.00 1018.99 1019.05 1019.15 1019.24 1019.30 1019.30 1019.23 1019.10 1018.93 1018.72 1018.50 1018.29 1018.07 1017.87 1017.66 1017.45 1017.25 1017.07 1016.93 1016.84 1016.83 1016.87 1016.97
1020.13 1020.89 1021.56 1022.05 1022.28 1022.20 1021.81 1021.18 1020.39 1019.57 1018.84 1018.30 1018.02 1017.99 1018.19 1018.56 1018.99 1019.41 1019.73 1019.91 1019.95 1019.86 1019.69 1019.49 1019.31 1019.18 1019.12 1019.11 1019.13 1019.15 1019.14 1019.09 1018.98 1018.81 1018.61 1018.38 1018.13 1017.88 1017.62 1017.35 1017.06 1016.76 1016.45 1016.17 1015.92 1015.74 1015.64 1015.62 1015.68
1020.32 1021.07 1021.70 1022.13 1022.28 1022.13 1021.69 1021.01 1020.21 1019.40 1018.69 1018.19 1017.94 1017.95 1018.19 1018.59 1019.05 1019.49 1019.84 1020.06 1020.13 1020.07 1019.92 1019.73 1019.54 1019.39 1019.28 1019.21 1019.17 1019.11 1019.04 1018.92 1018.75 1018.54 1018.30 1018.04 1017.77 1017.48 1017.18 1016.85 1016.49 1016.11 1015.72 1015.34 1015.00 1014.73 1014.54 1014.44 1014.42
1020.35 1021.04 1021.59 1021.94 1022.02 1021.82 1021.35 1020.69 1019.93 1019.18 1018.54 1018.11 1017.92 1017.98 1018.25 1018.67 1019.15 1019.60 1019.96 1020.19 1020.29 1020.25 1020.13 1019.96 1019.77 1019.61 1019.46 1019.34 1019.23 1019.11 1018.96 1018.77 1018.54 1018.28 1018.00 1017.70 1017.38 1017.06 1016.71 1016.33 1015.92 1015.48 1015.03 1014.58 1014.15 1013.79 1013.51 1013.33 1013.22
1020.19 1020.78 1021.23 1021.49 1021.51 1021.28 1020.83 1020.22 1019.54 1018.90 1018.38 1018.05 1017.94 1018.06 1018.36 1018.79 1019.26 1019.71 1020.07 1020.30 1020.41 1020.40 1020.31 1020.15 1019.98 1019.81 1019.64 1019.48 1019.30 1019.11 1018.89 1018.63 1018.33 1018.00 1017.66 1017.31 1016.95 1016.58 1016.19 1015.77 1015.32 1014.83 1014.33 1013.82 1013.34 1012.90 1012.54 1012.26 1012.06
Thickness
5732 5732 5731 5722 5698 5675 5678 5690 5697 5701 5705 5713 5714 5708 5702 5700 5699 5704 5722 5722 5722 5719 5713 5710 5705 5701 5697 5694 5691 5688 5685 5682 5680 5677 5675 5673 5672 5670 5670 5669 5668 5667 5667 5666 5666 5666 5666 5666 5666
5733 5732 5724 5707 5681 5666 5674 5691 5697 5703 5710 5713 5713 5712 5710 5710 5718 5722 5720 5720 5720 5717 5712 5709 5704 5700 5696 5692 5689 5685 5682 5679 5677 5674 5672 5670 5668 5667 5666 5665 5663 5662 5662 5661 5661 5661 5661 5660 5660
5734 5731 5713 5693 5678 5671 5685 5701 5703 5709 5712 5712 5711 5712 5713 5716 5722 5723 5723 5720 5717 5714 5710 5707 5703 5698 5694 5690 5686 5683 5680 5677 5674 5672 5669 5667 5665 5663 5662 5661 5659 5658 5657 5656 5656 5656 5655 5655 5654
5730 5719 5705 5688 5684 5687 5693 5704 5708 5710 5712 5713 5711 5710 5715 5724 5724 5723 5722 5718 5715 5712 5707 5704 5700 5696 5692 5688 5684 5681 5677 5674 5672 5669 5667 5664 5662 5660 5658 5657 5655 5654 5653 5652 5651 5650 5650 5650 5650
5725 5709 5693 5681 5687 5694 5700 5705 5708 5707 5710 5711 5709 5707 5711 5723 5721 5720 5718 5716 5713 5709 5705 5702 5698 5694 5690 5686 5682 5678 5675 5672 5669 5667 5664 5662 5659 5657 5655 5653 5651 5650 5649 5648 5647 5646 5645 5645 5645
5711 5699 5680 5676 5685 5695 5701 5707 5706 5705 5707 5709 5707 5707 5713 5721 5719 5716 5715 5712 5709 5706 5702 5699 5696 5692 5688 5684 5680 5676 5673 5670 5667 5665 5662 5659 5657 5654 5652 5650 5648 5646 5645 5644 5642 5641 5641 5640 5640
5705 5692 5683 5685 5684 5691 5705 5708 5706 5706 5706 5708 5709 5705 5715 5720 5716 5713 5710 5707 5704 5702 5699 5696 5694 5690 5686 5682 5678 5675 5671 5668 5665 5662 5659 5657 5654 5651 5649 5647 5645 5643 5641 5640 5638 5637 5636 5635 5634
5710 5695 5689 5683 5686 5692 5707 5709 5712 5709 5708 5714 5710 5705 5710 5715 5709 5707 5704 5701 5699 5697 5696 5694 5691 5688 5685 5681 5677 5673 5669 5666 5663 5660 5657 5654 5651 5648 5646 5644 5641 5639 5637 5635 5634 5632 5631 5630 5629
5713 5690 5680 5686 5689 5696 5708 5708 5713 5716 5712 5711 5710 5712 5713 5705 5703 5700 5697 5695 5694 5693 5692 5691 5688 5686 5683 5679 5675 5671 5667 5663 5660 5657 5654 5651 5648 5645 5642 5640 5637 5635 5633 5631 5630 5628 5626 5625 5624
5702 5684 5688 5697 5699 5702 5707 5707 5710 5709 5706 5708 5710 5711 5705 5701 5699 5698 5696 5694 5693 5693 5691 5689 5686 5683 5680 5676 5672 5668 5665 5661 5657 5654 5651 5647 5644 5641 5638 5635 5633 5631 5629 5627 5626 5624 5622 5620 5618
5704 5693 5698 5702 5705 5706 5704 5706 5709 5704 5699 5704 5706 5710 5704 5698 5696 5697 5697 5697 5698 5694 5689 5687 5684 5680 5677 5673 5669 5665 5662 5658 5654 5650 5647 5643 5640 5636 5633 5631 5628 5626 5624 5622 5620 5619 5617 5615 5613
5701 5701 5701 5704 5709 5706 5704 5706 5704 5701 5705 5712 5711 5710 5703 5697 5696 5698 5699 5698 5693 5689 5688 5685 5681 5677 5674 5670 5666 5662 5657 5654 5650 5646 5643 5639 5635 5631 5628 5625 5623 5620 5618 5616 5614 5612 5611 5609 5607
5698 5699 5703 5704 5703 5702 5702 5700 5702 5704 5708 5708 5707 5706 5702 5699 5698 5699 5698 5695 5690 5687 5685 5682 5678 5674 5670 5666 5662 5658 5654 5650 5646 5642 5638 5635 5630 5626 5623 5620 5617 5615 5612 5610 5608 5606 5604 5603 5601
5697 5697 5696 5697 5698 5698 5697 5697 5696 5705 5705 5705 5703 5700 5699 5697 5698 5695 5693 5692 5690 5688 5684 5679 5675 5672 5667 5662 5658 5655 5650 5646 5642 5638 5634 5631 5627 5623 5619 5616 5613 5610 5607 5605 5603 5601 5598 5596 5595
5693 5689 5689 5697 5697 5697 5694 5691 5694 5700 5700 5698 5695 5694 5696 5696 5695 5693 5693 5692 5690 5687 5682 5677 5673 5668 5664 5660 5655 5651 5647 5642 5638 5634 5630 5626 5623 5619 5615 5612 5609 5606 5603 5600 5598 5595 5592 5590 5588
5685 5676 5675 5688 5692 5692 5689 5680 5696 5695 5693 5690 5687 5686 5690 5692 5693 5691 5691 5690 5689 5686 5681 5676 5672 5666 5661 5656 5652 5647 5642 5638 5634 5630 5625 5622 5618 5615 5610 5607 5605 5602 5598 5594 5592 5589 5585 5583 5582
5668 5663 5668 5675 5685 5685 5682 5677 5688 5689 5687 5684 5680 5679 5682 5685 5687 5687 5688 5688 5686 5683 5679 5674 5670 5665 5658 5652 5646 5642 5637 5633 5629 5625 5621 5617 5613 5610 5606 5603 5601 5596 5591 5588 5585 5583 5579 5577 5576
5662 5663 5663 5664 5675 5676 5672 5671 5678 5681 5681 5678 5675 5674 5676 5678 5678 5679 5681 5682 5681 5678 5674 5670 5665 5660 5654 5647 5640 5635 5631 5627 5623 5620 5616 5613 5609 5605 5601 5599 5596 5590 5585 5581 5578 5576 5573 5571 5569
5665 5661 5656 5659 5669 5668 5665 5665 5669 5673 5675 5674 5671 5669 5669 5670 5671 5672 5672 5672 5672 5669 5666 5662 5658 5653 5647 5640 5634 5628 5625 5622 5618 5615 5612 5608 5605 5601 5596 5594 5590 5585 5580 5578 5574 5568 5564 5561 5556
5658 5654 5651 5655 5664 5661 5659 5660 5667 5670 5670 5669 5667 5664 5662 5663 5666 5666 5665 5662 5660 5659 5657 5655 5651 5647 5642 5636 5630 5625 5621 5617 5614 5611 5608 5605 5601 5597 5592 5588 5585 5581 5576 5572 5567 5561 5556 5554 5548
5653 5650 5652 5653 5655 5655 5653 5659 5664 5667 5667 5664 5661 5658 5656 5656 5654 5655 5655 5652 5650 5649 5647 5647 5644 5640 5635 5630 5624 5618 5613 5610 5607 5605 5603 5601 5597 5593 5589 5586 5581 5576 5571 5567 5563 5557 5550 5546 5541
5646 5655 5652 5651 5644 5638 5644 5639 5655 5659 5661 5661 5657 5652 5650 5648 5648 5647 5646 5643 5641 5638 5637 5637 5635 5631 5627 5623 5618 5612 5607 5604 5604 5601 5598 5596 5593 5589 5586 5582 5577 5573 5567 5563 5559 5552 5546 5539 5535
5652 5654 5649 5646 5639 5632 5633 5632 5643 5652 5652 5653 5653 5649 5646 5643 5642 5640 5637 5635 5632 5629 5628 5627 5626 5623 5619 5615 5611 5606 5602 5601 5599 5595 5593 5590 5588 5585 5581 5577 5573 5568 5563 5559 5554 5548 5541 5535 5530
5650 5642 5633 5625 5622 5626 5634 5626 5638 5641 5649 5649 5648 5644 5641 5638 5635 5632 5630 5628 5625 5622 5620 5618 5617 5614 5611 5608 5604 5600 5597 5594 5591 5589 5586 5584 5581 5578 5575 5570 5566 5562 5557 5553 5548 5542 5535 5530 5524
5645 5633 5623 5628 5620 5624 5630 5623 5634 5649 5648 5646 5642 5637 5634 5631 5626 5623 5621 5618 5616 5613 5611 5610 5609 5607 5604 5601 5598 5595 5592 5588 5585 5583 5579 5577 5574 5571 5568 5563 5558 5554 5549 5545 5540 5533 5528 5522 5516
5638 5633 5620 5619 5614 5614 5622 5619 5637 5645 5640 5639 5637 5631 5627 5623 5618 5616 5613 5609 5605 5605 5603 5601 5600 5599 5597 5594 5592 5588 5585 5581 5578 5575 5572 5568 5565 5563 5560 5555 5550 5546 5541 5536 5530 5524 5518 5513 5507
5631 5626 5624 5610 5608 5606 5613 5620 5634 5640 5635 5631 5627 5623 5619 5616 5613 5608 5604 5601 5598 5596 5595 5592 5591 5590 5589 5586 5584 5581 5577 5574 5570 5567 5563 5559 5556 5553 5550 5545 5540 5535 5530 5524 5518 5512 5508 5502 5497
5633 5620 5609 5604 5604 5602 5609 5614 5622 5633 5629 5625 5620 5616 5613 5610 5605 5601 5596 5593 5591 5588 5586 5585 5583 5581 5579 5576 5573 5571 5567 5564 5560 5556 5552 5548 5544 5540 5536 5532 5527 5521 5516 5510 5504 5499 5494 5488 5484
5620 5618 5610 5597 5596 5593 5594 5613 5629 5628 5624 5618 5615 5611 5607 5602 5596 5591 5588 5585 5582 5580 5578 5576 5574 5571 5569 5566 5562 5559 5555 5552 5548 5543 5539 5535 5531 5527 5522 5517 5512 5506 5501 5494 5488 5483 5477 5471 5468
5620 5616 5605 5602 5596 5585 5585 5606 5630 5622 5617 5613 5609 5604 5599 5595 5588 5583 5580 5577 5574 5572 5569 5566 5563 5560 5557 5554 5550 5546 5543 5539 5535 5530 5526 5522 5517 5512 5506 5501 5495 5489 5483 5476 5469 5464 5459 5453 5449